Regional Weather Roundup
Issued by NWS Goodland, KS

Home | Current Version | Previous Version | Graphics & Text | Print | Product List | Glossary On
Versions: 1 2 3 4 5 6 7 8 9 10 11 12 13 14 15 16 17 18 19 20 21 22 23 24 25 26 27 28 29 30 31 32 33 34 35 36 37 38 39 40 41 42 43 44 45 46 47 48 49 50
000
ASUS43 KGLD 261408
RWRGLD

GOODLAND FORECAST AREA HOURLY WEATHER ROUNDUP
NATIONAL WEATHER SERVICE GOODLAND KS
800 AM MDT THU MAY 26 2016

...OFFICIAL OBSERVATIONS...

CITY           SKY/WX    TMP DP  RH WIND       PRES   REMARKS
GOODLAND KS    SUNNY     63  49  60 NE7       29.90R
HILL CITY KS   CLOUDY    63  53  70 NE10      29.87F
IMPERIAL NEB   CLOUDY    58  50  75 N14       29.93R
MCCOOK NEB     SUNNY     61  54  77 NE6       29.87F
AKRON CO       CLOUDY    58  42  55 N10       29.97S
BURLINGTON CO  SUNNY     62  45  53 NE8       29.92S
LIMON CO       PTSUNNY   58  48  69 CALM      29.99R
$$

...UNOFFICIAL OBSERVATIONS...

CITY           SKY/WX    TMP DP  RH WIND       PRES   REMARKS
GOVE KS          N/A     61  32  33 MISG        N/A
LENORA KS        N/A     63  32  31 MISG        N/A
SHARON SPRINGS   N/A     61  57  87 NE10        N/A
TRIBUNE KS     MOSUNNY   63  55  77 NE8       29.89
KIT CARSON CO    N/A     60  50  70 MISG        N/A
YUMA CO          N/A     59  49  68 CALM        N/A
$$



USA.gov is the U.S. government's official web portal to all federal, state and local government web resources and services.